Location: Aalen
(48.8330°N, 10.1000°E)
Time: 02:54:44
(UTC+01:00)

Envisat - Pass Details

Date: 07 December 2022
Orbit: 763 x 765 km, 98.2° (Epoch: 08 February)

Event Time Altitude Azimuth Distance (km) Brightness Sun altitude
Rises 06:08:25 0° 3° (N) 3,247 6.1 -17.2°
Reaches altitude 10° 06:11:15 10° 347° (NNW) 2,316 5.2 -16.8°
Enters shadow 06:13:00 17° 330° (NNW) 1,892 4.6 -16.5°
